Weather in Sedanka

Russia / Kamchatka Krai     57°43′31″N   158°17′15″E
temp.,
°C
wind,
m/s
gust,
m/s
humid.,
%
clouds,
%
prec.,
mm/h
press.,
hPa
HPBL,
m
28 february, sun
sun2800:00−15ne4588100 0.0 101679
03:00−15nne4688100 0.0 101694
06:00−17nne4587100 0.0 101463
09:00−17nne4688100 0.0 101396
12:00−14n5688100 0.0 1011171
15:00−13n6989100 0.0 1009247
18:00−15n6994100 0.0 1007177
21:00−17n5899100 0.0 1006164
1 march, mon
mon100:00−16n4595100 0.0 1003108
03:00−14n61192100 0.0 1001268
06:00−16n61096100 0.3 1000363
09:00−17n71295100 0.9 999455
12:00−17n71188100 1.1 999553
15:00−17n71191100 0.1 999683
18:00−18n61289100 0.1 1000636
21:00−18n4990100 0.0 1003436
2 march, tue
tue200:00−19n3490100 0.0 100573
03:00−20wnw2290100 0.0 100820
06:00−20w2394100 0.0 101122
09:00−19wsw2296100 0.1 101455
12:00−17sw3391100 0.2 1016281
15:00−15s2385100 0.1 1018486
18:00−17se3389100 0.1 101936
21:00−20se448957 0.0 102238
3 march, wed
wed300:00−18se239878 0.1 102331
03:00−15ssw6118864 0.2 1024180
06:00−15s598881 0.2 1023136
09:00−14ese4787100 0.0 1020127
12:00−11ene81278100 0.1 1013774
15:00−9e101686100 1.0 1003961
18:00−7e72078100 2.2 993985
21:00−4ese102078100 0.2 984693
4 march, thu
thu400:00−3ese92087100 1.4 972577
03:000se92078100 0.5 964577
06:00−6ssw15238183 0.8 971873
09:00−13wsw12199191 0.3 9821336
12:00−13wsw16238795 0.8 9862088
15:00−13wsw172483100 0.3 9902286
18:00−12wsw162381100 0.8 9922037
21:00−12wsw12208798 0.2 9941500